Francistown, Botswana

1:57 AM CAT on May 25, 2017 (GMT +0200)
Francistown

Weather History for FBFT - June, 2013

Change the Weather History Date:

Sunday, June 16, 2013

  Actual Average Record
Temperature  
Mean Temperature 60 °F -  
Max Temperature 71 °F 72 °F 84 °F (1997)
Min Temperature 48 °F 41 °F 32 °F (2015)
Degree Days  
Heating Degree Days 6    
Growing Degree Days 10 (Base 50)    
Moisture  
Dew Point 45 °F    
Average Humidity 57    
Maximum Humidity 72    
Minimum Humidity 39    
Precipitation  
Precipitation 0.00 in - - ()
Sea Level Pressure  
Sea Level Pressure 30.34 in    
Wind  
Wind Speed 9 mph ()    
Max Wind Speed 21 mph    
Max Gust Speed 30 mph    
Visibility 6.2 miles    
Events      
Averages and records for this station are not official NWS values.
T = Trace of Precipitation, MM = Missing Value Source: Averaged Metar Reports

Daily Weather History Graph

Daily Weather History Graph

Search for Another Location

Airport or City:

Trip Planner

Search our weather history database for the weather conditions in past years. The results will help you decide how hot, cold, wet, or windy it might be!

Date:

Astronomy

Jun. 16, 2013 Rise Set
Actual Time 6:45 AM CAT 5:36 PM CAT
Civil Twilight 6:21 AM CAT 6:00 PM CAT
Nautical Twilight 5:53 AM CAT 6:28 PM CAT
Astronomical Twilight 5:26 AM CAT 6:55 PM CAT
Moon 11:53 AM CAT (6/16) No Moon Set
Length of Visible Light 11h 39m
Length of Day
10h 50m
Waxing Crescent, 47% of the Moon is Illuminated
Jun 16
Waxing Crescent
Jun 16
First Quarter
Jun 23
Full
Jun 30
Last Quarter
Jul 8
New

Hourly Weather History & Observations

Time (CAT) Temp. Windchill Dew Point Humidity Pressure Visibility Wind Dir Wind Speed Gust Speed Precip Events Conditions
1:00 AM 48.2 °F - 30.2 °F 50% 30.24 in - Calm Calm - N/A   Clear
2:00 AM 48 °F - 31 °F 39%  in 6 mi ESE 5.8 mph - -   Partly Cloudy
2:00 AM 48.2 °F - 30.2 °F 50% 30.24 in - ESE 5.8 mph - N/A   Clear
4:00 AM 46.4 °F 42.9 °F 32.0 °F 57% 30.15 in - ESE 6.9 mph - N/A   Clear
5:00 AM 50.0 °F - 35.6 °F 58% 30.27 in - East 5.8 mph - N/A   Clear
6:00 AM 53.6 °F - 44.6 °F 72% 30.33 in 6.2 mi East 12.7 mph - N/A   Mostly Cloudy
7:00 AM 57.2 °F - 48.2 °F 72% 30.33 in 6.2 mi East 15.0 mph 26.5 mph N/A   Mostly Cloudy
8:00 AM 58 °F - 48 °F 62%  in 6 mi East 19.6 mph - -   Partly Cloudy
8:00 AM 59.0 °F - 48.2 °F 67% 30.36 in 6.2 mi East 19.6 mph - N/A   Mostly Cloudy
9:00 AM 60.8 °F - 50.0 °F 68% 30.39 in 6.2 mi East 20.7 mph - N/A   Mostly Cloudy
10:00 AM 60.8 °F - 48.2 °F 63% 30.42 in 6.2 mi East 16.1 mph - N/A   Mostly Cloudy
11:00 AM 62.6 °F - 50.0 °F 63% 30.42 in 6.2 mi East 15.0 mph - N/A   Mostly Cloudy
12:00 PM 64.4 °F - 48.2 °F 56% 30.39 in 6.2 mi East 16.1 mph - N/A   Mostly Cloudy
1:00 PM 68.0 °F - 50.0 °F 52% 30.36 in 6.2 mi East 16.1 mph 29.9 mph N/A   Scattered Clouds
2:00 PM 68.0 °F - 50.0 °F 52% 30.33 in 6.2 mi SE 11.5 mph - N/A   Scattered Clouds
3:00 PM 69.8 °F - 48.2 °F 46% 30.33 in 6.2 mi East 9.2 mph - N/A   Partly Cloudy
4:00 PM 71.6 °F - 48.2 °F 43% 30.33 in 6.2 mi ENE 11.5 mph - N/A   Partly Cloudy
5:00 PM 66.2 °F - 50.0 °F 56% 30.33 in - East 17.3 mph - N/A   Clear
6:00 PM 64.4 °F - 46.4 °F 52% 30.36 in - ESE 12.7 mph - N/A   Clear
7:00 PM 62.6 °F - 46.4 °F 55% 30.36 in - East 9.2 mph - N/A   Clear
8:00 PM 62.6 °F - 46.4 °F 55% 30.39 in - SE 6.9 mph - N/A   Clear
9:00 PM 60.8 °F - 46.4 °F 59% 30.39 in - ESE 9.2 mph - N/A   Clear
10:00 PM 60.8 °F - 48.2 °F 63% 30.42 in 6.2 mi ESE 8.1 mph - N/A   Mostly Cloudy
11:00 PM 60.8 °F - 48.2 °F 63% 30.42 in 6.2 mi East 12.7 mph - N/A   Mostly Cloudy